Flag for Netherlands Weather past 2 weeks in Arnhem, Netherlands

Now
79 °F

Overcast.


Feels Like: 80 °F
Forecast: 65 / 82 °F
Wind: 6 mph from Northwest

Location: Deelen

Current Time: Jul 4, 2015 at 9:54:40 PM

Latest Report: Jul 4, 2015 at 8:55 PM


Visibility: N/A

Pressure: 30.09 "Hg

Humidity: 48%

Dew point: 57 °F

Location of ArnhemLocation

Historic Weather in Arnhem — Graph

°F

Arnhem temperature yesterday

Maximum temperature yesterday: 86 °F (at 3:55 PM)
Minimum temperature yesterday: 64 °F (at 2:55 AM)
Average temperature yesterday: 75 °F

Past Weeks' High & Low Weather Summary

 TemperatureHumidityPressure
High97 °F (Jul 2, 3:25 PM)100% (Jun 20, 1:25 AM)30.24 "Hg (Jun 20, 1:25 AM)
Low45 °F (Jun 23, 2:55 AM)26% (Jul 1, 4:25 PM)29.68 "Hg (Jun 22, 5:55 PM)
Average65 °F73%30.06 "Hg
* Reported Jun 19 8:25 PM — Jul 4 8:55 PM, Arnhem, Weather by CustomWeather, © 2015

Note: Actual official high and low records may vary slightly from our data, if they occured in-between our weather recording intervals... More about our weather records

Advertising

Arnhem weather history for previous 24 hours

 ConditionsComfort  
Time TempWeatherWind HumidityBarometerVisibility
8:55 PM
Sat, Jul 4
79 °FOvercast.6 mph48%30.09 "HgN/A
8:25 PM79 °FOvercast.8 mph48%30.09 "HgN/A
7:55 PM82 °FPartly sunny.9 mph42%30.09 "HgN/A
7:25 PM84 °FOvercast.10 mph33%30.07 "HgN/A
6:55 PM84 °FPartly sunny.10 mph35%30.09 "HgN/A
6:25 PM88 °FPassing clouds.10 mph38%30.07 "HgN/A
5:55 PM90 °FHot.9 mph36%30.07 "HgN/A
5:25 PM90 °FPartly sunny.9 mph36%30.07 "HgN/A
4:55 PM91 °FBroken clouds.10 mph44%30.07 "HgN/A
4:25 PM91 °FScattered clouds.9 mph46%30.07 "HgN/A
3:55 PM91 °FScattered clouds.7 mph46%30.07 "HgN/A
3:25 PM91 °FHot.8 mph46%30.07 "HgN/A
2:55 PM91 °FPassing clouds.10 mph49%30.07 "HgN/A
2:25 PM91 °FScattered clouds.9 mph46%30.04 "HgN/A
1:55 PM90 °FPassing clouds.9 mph52%30.07 "HgN/A
1:25 PM90 °FHot.10 mph59%30.04 "HgN/A
12:55 PM90 °FScattered clouds.8 mph55%30.04 "HgN/A
12:25 PM86 °FWarm.8 mph62%30.04 "HgN/A
11:55 AM84 °FOvercast.12 mph62%30.04 "HgN/A
11:25 AM86 °FScattered clouds.10 mph59%30.04 "HgN/A
10:55 AM84 °FPassing clouds.6 mph66%30.04 "HgN/A
10:25 AM84 °FPartly sunny.8 mph62%30.04 "HgN/A
9:55 AM82 °FPassing clouds.8 mph66%30.01 "HgN/A
9:25 AM81 °FPassing clouds.10 mph70%30.01 "HgN/A
8:55 AM81 °FPassing clouds.9 mph66%30.04 "HgN/A
8:25 AM79 °FPartly sunny.9 mph70%30.04 "HgN/A
7:55 AM75 °FPassing clouds.8 mph78%30.04 "HgN/A
7:25 AM73 °FMild.7 mph78%30.04 "HgN/A
6:55 AM72 °FFog.7 mph83%30.04 "Hg6 mi
6:25 AM72 °FFog.9 mph83%30.04 "Hg6 mi
5:55 AM72 °FFog.8 mph83%30.07 "Hg6 mi
5:25 AM72 °FPassing clouds.9 mph83%30.07 "HgN/A
4:55 AM72 °FPassing clouds.9 mph83%30.07 "HgN/A
4:25 AM72 °FMild.8 mph83%30.09 "HgN/A
3:55 AM72 °FMild.9 mph83%30.09 "HgN/A
3:25 AM72 °FMild.8 mph88%30.09 "HgN/A
2:55 AM72 °FPassing clouds.10 mph88%30.12 "HgN/A
2:25 AM72 °FMild.8 mph88%30.12 "HgN/A
1:55 AM72 °FPassing clouds.8 mph88%30.12 "HgN/A
1:25 AM72 °FMild.9 mph94%30.15 "HgN/A
12:55 AM72 °FPassing clouds.10 mph94%30.15 "HgN/A
12:25 AM73 °FPassing clouds.12 mph89%30.15 "HgN/A
11:55 PM
Fri, Jul 3
73 °FMild.10 mph83%30.18 "HgN/A
11:25 PM73 °FMild.12 mph83%30.18 "HgN/A
10:55 PM75 °FMild.12 mph78%30.18 "HgN/A
10:25 PM75 °FMild.10 mph78%30.18 "HgN/A
9:55 PM77 °FWarm.8 mph74%30.18 "HgN/A
9:25 PM79 °FWarm.7 mph65%30.18 "HgN/A
Weather by CustomWeather, © 2015

See weather overviewHow to use our weather pages